{"data":{"norad_id":68740,"intl_designator":"2026-082N","name":"STARLINK-37314","alt_names":[],"object_type":"PAYLOAD","status":"ACTIVE","operator":null,"country":"US","launch_date":"2026-04-15","launch_site_code":"AFWTR","launch_vehicle":null,"mission":null,"orbit_class":"UNKNOWN","rcs_meters":null,"size_class":null,"mass_kg":null,"dimensions":null,"purposes":["comms"],"wikipedia_slug":null,"has_3d_model":false,"image_url":null,"decayed_at":null,"tle_current":{"epoch":"2026-05-25T04:00:03.998880Z","epoch_age_seconds":54580,"freshness":"FRESH","line1":"1 68740U 26082N   26145.16671295 -.02028562  00000+0 -34138-1 0  9994","line2":"2 68740  97.2856   8.7970 0002004 100.9055  38.2128 15.54802450  5891","mean_motion":15.5480245,"eccentricity":0.0002004,"inclination_deg":97.2856,"raan_deg":8.797,"arg_perigee_deg":100.9055,"mean_anomaly_deg":38.2128,"bstar":-0.034138,"rev_number":589,"period_min":92.61626774514,"perigee_km":401.36805850672,"apogee_km":404.08582877533,"semimajor_km":6780.863943641,"source":"CELESTRAK","updated_at":"2026-05-25T13:38:22.007055Z"}}}